Time,TemperatureF,DewpointF,PressureIn,WindDirection,WindDirectionDegrees,WindSpeedMPH,WindSpeedGustMPH,Humidity,HourlyPrecipIn,Conditions,Clouds,dailyrainin,SoftwareType,DateUTC
2013-01-07 00:04:00,28.0,22.9,30.11,SW,225,1.5,2.4,81,0.00,,,0.00,WUHU216HW,2013-01-07 07:04:00,
2013-01-07 00:09:00,28.0,22.9,30.10,SSW,203,0.0,2.6,81,0.00,,,0.00,WUHU216HW,2013-01-07 07:09:00,
2013-01-07 00:14:00,28.0,22.9,30.10,WSW,248,0.0,2.6,81,0.00,,,0.00,WUHU216HW,2013-01-07 07:14:00,
2013-01-07 00:19:00,28.0,22.9,30.10,SW,225,0.0,0.0,81,0.00,,,0.00,WUHU216HW,2013-01-07 07:19:00,
2013-01-07 00:24:00,28.0,22.9,30.10,WSW,248,0.0,0.0,81,0.00,,,0.00,WUHU216HW,2013-01-07 07:24:00,
2013-01-07 00:29:00,28.0,22.6,30.09,WSW,248,0.0,0.0,80,0.00,,,0.00,WUHU216HW,2013-01-07 07:29:00,
2013-01-07 00:34:00,28.0,22.6,30.09,SW,225,2.9,2.9,80,0.00,,,0.00,WUHU216HW,2013-01-07 07:34:00,
2013-01-07 00:39:00,28.0,22.6,30.09,WSW,248,0.0,2.9,80,0.00,,,0.00,WUHU216HW,2013-01-07 07:39:00,
2013-01-07 00:44:00,28.2,22.8,30.09,SW,225,0.0,3.1,80,0.00,,,0.00,WUHU216HW,2013-01-07 07:44:00,
2013-01-07 00:49:00,28.2,22.8,30.09,West,270,1.3,3.1,80,0.00,,,0.00,WUHU216HW,2013-01-07 07:49:00,
2013-01-07 00:54:00,28.2,22.8,30.09,WSW,248,0.0,4.6,80,0.00,,,0.00,WUHU216HW,2013-01-07 07:54:00,
2013-01-07 00:59:00,28.4,23.0,30.09,SW,225,0.0,4.6,80,0.00,,,0.00,WUHU216HW,2013-01-07 07:59:00,
2013-01-07 01:05:00,28.5,23.1,30.09,SW,225,0.0,0.0,80,0.00,,,0.00,WUHU216HW,2013-01-07 08:05:00,
2013-01-07 01:10:00,28.5,22.8,30.09,SSW,203,0.0,1.7,79,0.00,,,0.00,WUHU216HW,2013-01-07 08:10:00,
2013-01-07 01:15:00,28.5,22.8,30.09,SSW,203,0.0,4.2,79,0.00,,,0.00,WUHU216HW,2013-01-07 08:15:00,
2013-01-07 01:20:00,28.5,22.8,30.09,SSW,203,3.3,4.2,79,0.00,,,0.00,WUHU216HW,2013-01-07 08:20:00,
2013-01-07 01:25:00,28.7,23.0,30.09,SSW,203,4.2,6.2,79,0.00,,,0.00,WUHU216HW,2013-01-07 08:25:00,
2013-01-07 01:30:00,28.7,22.7,30.09,South,180,6.0,6.2,78,0.00,,,0.00,WUHU216HW,2013-01-07 08:30:00,
2013-01-07 01:35:00,28.7,22.7,30.09,SSW,203,5.3,6.0,78,0.00,,,0.00,WUHU216HW,2013-01-07 08:35:00,
2013-01-07 01:40:00,28.9,22.9,30.09,South,180,5.1,8.0,78,0.00,,,0.00,WUHU216HW,2013-01-07 08:40:00,
2013-01-07 01:45:00,28.9,22.6,30.09,WSW,248,2.4,8.0,77,0.00,,,0.00,WUHU216HW,2013-01-07 08:45:00,
2013-01-07 01:50:00,29.1,22.7,30.09,SSW,203,1.3,3.8,77,0.00,,,0.00,WUHU216HW,2013-01-07 08:50:00,
2013-01-07 01:55:00,29.1,22.7,30.09,SW,225,3.1,3.8,77,0.00,,,0.00,WUHU216HW,2013-01-07 08:55:00,
2013-01-07 02:00:00,29.1,22.7,30.09,SSW,203,0.0,3.8,77,0.00,,,0.00,WUHU216HW,2013-01-07 09:00:00,
2013-01-07 02:05:00,29.1,22.7,30.09,SW,225,2.9,3.8,77,0.00,,,0.00,WUHU216HW,2013-01-07 09:05:00,
2013-01-07 02:10:00,29.1,22.7,30.09,SSW,203,3.3,6.0,77,0.00,,,0.00,WUHU216HW,2013-01-07 09:10:00,
2013-01-07 02:16:00,29.1,22.7,30.09,SW,225,1.3,6.0,77,0.00,,,0.00,WUHU216HW,2013-01-07 09:16:00,
2013-01-07 02:21:00,29.1,22.7,30.09,SW,225,0.0,2.9,77,0.00,,,0.00,WUHU216HW,2013-01-07 09:21:00,
2013-01-07 02:26:00,29.1,22.7,30.09,SW,225,0.0,2.9,77,0.00,,,0.00,WUHU216HW,2013-01-07 09:26:00,
2013-01-07 02:31:00,29.1,22.7,30.09,SSW,203,2.4,2.4,77,0.00,,,0.00,WUHU216HW,2013-01-07 09:31:00,
2013-01-07 02:36:00,29.1,22.7,30.09,SW,225,4.2,4.2,77,0.00,,,0.00,WUHU216HW,2013-01-07 09:36:00,
2013-01-07 02:41:00,29.1,22.7,30.09,SSW,203,0.0,4.2,77,0.00,,,0.00,WUHU216HW,2013-01-07 09:41:00,
2013-01-07 02:46:00,29.1,22.7,30.09,WSW,248,0.0,4.4,77,0.00,,,0.00,WUHU216HW,2013-01-07 09:46:00,
2013-01-07 02:51:00,29.1,22.7,30.09,SW,225,3.1,4.4,76,0.00,,,0.00,WUHU216HW,2013-01-07 09:51:00,
2013-01-07 02:56:00,29.1,22.7,30.10,SW,225,2.6,3.1,77,0.00,,,0.00,WUHU216HW,2013-01-07 09:56:00,
2013-01-07 03:01:00,29.3,22.9,30.10,SSW,203,1.1,3.1,77,0.00,,,0.00,WUHU216HW,2013-01-07 10:01:00,
2013-01-07 03:06:00,29.1,22.7,30.10,SW,225,5.3,6.2,77,0.00,,,0.00,WUHU216HW,2013-01-07 10:06:00,
2013-01-07 03:11:00,29.1,23.0,30.09,SW,225,4.6,6.2,78,0.00,,,0.00,WUHU216HW,2013-01-07 10:11:00,
2013-01-07 03:16:00,29.1,23.3,30.09,SSW,203,0.0,6.0,79,0.00,,,0.00,WUHU216HW,2013-01-07 10:16:00,
2013-01-07 03:21:00,28.9,23.2,30.09,SSW,203,0.0,6.0,79,0.00,,,0.00,WUHU216HW,2013-01-07 10:21:00,
2013-01-07 03:26:00,28.9,23.5,30.09,SW,225,0.0,8.5,80,0.00,,,0.00,WUHU216HW,2013-01-07 10:26:00,
2013-01-07 03:31:00,28.7,23.3,30.09,SW,225,0.0,8.5,80,0.00,,,0.00,WUHU216HW,2013-01-07 10:31:00,
2013-01-07 03:36:00,28.5,23.1,30.09,SW,225,0.0,4.0,80,0.00,,,0.00,WUHU216HW,2013-01-07 10:36:00,
2013-01-07 03:41:00,28.5,23.4,30.09,SW,225,4.6,4.6,81,0.00,,,0.00,WUHU216HW,2013-01-07 10:41:00,
2013-01-07 03:46:00,28.5,23.4,30.09,SSW,203,0.0,4.6,81,0.00,,,0.00,WUHU216HW,2013-01-07 10:46:00,
2013-01-07 03:51:00,28.2,23.1,30.09,SSW,203,0.0,4.2,81,0.00,,,0.00,WUHU216HW,2013-01-07 10:51:00,
2013-01-07 03:56:00,28.2,23.3,30.09,SSW,203,0.0,4.2,82,0.00,,,0.00,WUHU216HW,2013-01-07 10:56:00,
2013-01-07 04:01:00,28.2,23.3,30.09,SSW,203,2.4,3.5,82,0.00,,,0.00,WUHU216HW,2013-01-07 11:01:00,
2013-01-07 04:06:00,28.2,23.3,30.08,SSW,203,0.0,3.5,82,0.00,,,0.00,WUHU216HW,2013-01-07 11:06:00,
2013-01-07 04:11:00,28.2,23.3,30.09,SW,225,0.0,3.1,82,0.00,,,0.00,WUHU216HW,2013-01-07 11:11:00,
2013-01-07 04:16:00,28.0,23.2,30.08,SSW,203,0.0,6.9,82,0.00,,,0.00,WUHU216HW,2013-01-07 11:16:00,
2013-01-07 04:21:00,28.0,23.5,30.09,SW,225,0.0,6.9,83,0.00,,,0.00,WUHU216HW,2013-01-07 11:21:00,
2013-01-07 04:26:00,28.0,23.5,30.09,SW,225,0.0,1.5,83,0.00,,,0.00,WUHU216HW,2013-01-07 11:26:00,
2013-01-07 04:31:00,27.6,23.1,30.08,WSW,248,0.0,0.0,83,0.00,,,0.00,WUHU216HW,2013-01-07 11:31:00,
2013-01-07 04:36:00,27.6,23.1,30.08,SW,225,0.0,0.0,83,0.00,,,0.00,WUHU216HW,2013-01-07 11:36:00,
2013-01-07 04:41:00,27.6,23.1,30.08,SW,225,0.0,0.0,83,0.00,,,0.00,WUHU216HW,2013-01-07 11:41:00,
2013-01-07 04:46:00,27.6,23.4,30.08,West,270,0.0,0.0,84,0.00,,,0.00,WUHU216HW,2013-01-07 11:46:00,
2013-01-07 04:51:00,27.5,23.2,30.08,WSW,248,0.0,0.0,84,0.00,,,0.00,WUHU216HW,2013-01-07 11:51:00,
2013-01-07 04:57:00,27.5,23.2,30.08,WSW,248,0.0,0.0,84,0.00,,,0.00,WUHU216HW,2013-01-07 11:57:00,
2013-01-07 05:02:00,27.5,23.2,30.08,West,270,0.0,0.0,84,0.00,,,0.00,WUHU216HW,2013-01-07 12:02:00,
2013-01-07 05:07:00,27.3,23.0,30.08,SW,225,0.0,0.0,84,0.00,,,0.00,WUHU216HW,2013-01-07 12:07:00,
2013-01-07 05:12:00,27.3,23.0,30.08,SSW,203,0.0,0.0,84,0.00,,,0.00,WUHU216HW,2013-01-07 12:12:00,
2013-01-07 05:17:00,27.3,23.3,30.08,SW,225,0.0,0.0,85,0.00,,,0.00,WUHU216HW,2013-01-07 12:17:00,
2013-01-07 05:22:00,27.3,23.3,30.08,SSW,203,0.0,0.0,85,0.00,,,0.00,WUHU216HW,2013-01-07 12:22:00,
2013-01-07 05:27:00,27.3,23.3,30.08,SW,225,0.0,0.0,85,0.00,,,0.00,WUHU216HW,2013-01-07 12:27:00,
2013-01-07 05:32:00,27.3,23.3,30.08,WSW,248,0.0,0.0,85,0.00,,,0.00,WUHU216HW,2013-01-07 12:32:00,
2013-01-07 05:37:00,27.3,23.3,30.07,SSW,203,0.0,0.0,85,0.00,,,0.00,WUHU216HW,2013-01-07 12:37:00,
2013-01-07 05:42:00,27.1,23.4,30.08,WSW,248,0.0,0.0,86,0.00,,,0.00,WUHU216HW,2013-01-07 12:42:00,
2013-01-07 05:47:00,27.1,23.4,30.08,SW,225,0.0,0.0,86,0.00,,,0.00,WUHU216HW,2013-01-07 12:47:00,
2013-01-07 05:52:00,27.1,23.4,30.07,North,0,0.0,0.0,86,0.00,,,0.00,WUHU216HW,2013-01-07 12:52:00,
2013-01-07 05:57:00,27.1,23.4,30.07,SW,225,0.0,0.0,86,0.00,,,0.00,WUHU216HW,2013-01-07 12:57:00,
2013-01-07 06:02:00,27.1,23.4,30.07,SW,225,0.0,0.0,86,0.00,,,0.00,WUHU216HW,2013-01-07 13:02:00,
2013-01-07 06:07:00,27.1,23.4,30.07,SW,225,0.0,0.0,86,0.00,,,0.00,WUHU216HW,2013-01-07 13:07:00,
2013-01-07 06:12:00,27.1,23.4,30.07,West,270,0.0,0.0,86,0.00,,,0.00,WUHU216HW,2013-01-07 13:12:00,
2013-01-07 06:18:00,27.1,23.4,30.07,SSW,203,0.0,0.0,86,0.00,,,0.00,WUHU216HW,2013-01-07 13:18:00,
2013-01-07 06:23:00,27.1,23.4,30.07,WSW,248,0.0,0.0,86,0.00,,,0.00,WUHU216HW,2013-01-07 13:23:00,
2013-01-07 06:28:00,27.1,23.4,30.06,SW,225,0.0,0.0,86,0.00,,,0.00,WUHU216HW,2013-01-07 13:28:00,
2013-01-07 06:33:00,27.1,23.4,30.06,West,270,0.0,0.0,86,0.00,,,0.00,WUHU216HW,2013-01-07 13:33:00,
2013-01-07 06:38:00,27.1,23.4,30.06,West,270,0.0,0.0,86,0.00,,,0.00,WUHU216HW,2013-01-07 13:38:00,
2013-01-07 06:43:00,27.1,23.4,30.06,WSW,248,0.0,0.0,86,0.00,,,0.00,WUHU216HW,2013-01-07 13:43:00,
2013-01-07 06:48:00,27.1,23.7,30.06,West,270,0.0,0.0,87,0.00,,,0.00,WUHU216HW,2013-01-07 13:48:00,
2013-01-07 06:53:00,27.1,23.7,30.06,WSW,248,0.0,0.0,87,0.00,,,0.00,WUHU216HW,2013-01-07 13:53:00,
2013-01-07 06:58:00,27.1,23.7,30.05,West,270,0.0,0.0,87,0.00,,,0.00,WUHU216HW,2013-01-07 13:58:00,
2013-01-07 07:03:00,27.3,23.9,30.06,West,270,0.0,0.0,87,0.00,,,0.00,WUHU216HW,2013-01-07 14:03:00,
2013-01-07 07:08:00,27.3,23.9,30.05,WSW,248,0.0,0.0,87,0.00,,,0.00,WUHU216HW,2013-01-07 14:08:00,
2013-01-07 07:13:00,27.3,23.9,30.05,South,180,0.0,0.0,87,0.00,,,0.00,WUHU216HW,2013-01-07 14:13:00,
2013-01-07 07:19:00,27.5,24.1,30.05,WSW,248,0.0,0.0,87,0.00,,,0.00,WUHU216HW,2013-01-07 14:19:00,
2013-01-07 07:24:00,27.6,24.2,30.04,WSW,248,0.0,0.0,87,0.00,,,0.00,WUHU216HW,2013-01-07 14:24:00,
2013-01-07 07:29:00,27.6,24.5,30.04,West,270,0.0,0.0,88,0.00,,,0.00,WUHU216HW,2013-01-07 14:29:00,
2013-01-07 07:34:00,27.6,24.5,30.04,West,270,0.0,0.0,88,0.00,,,0.00,WUHU216HW,2013-01-07 14:34:00,
2013-01-07 07:39:00,27.8,24.7,30.04,West,270,0.0,0.0,88,0.00,,,0.00,WUHU216HW,2013-01-07 14:39:00,
2013-01-07 07:44:00,28.0,24.9,30.04,SSW,203,0.0,0.0,88,0.00,,,0.00,WUHU216HW,2013-01-07 14:44:00,
2013-01-07 07:49:00,28.0,24.9,30.04,SW,225,0.0,0.0,88,0.00,,,0.00,WUHU216HW,2013-01-07 14:49:00,
2013-01-07 07:54:00,28.0,24.9,30.03,SW,225,0.0,0.0,88,0.00,,,0.00,WUHU216HW,2013-01-07 14:54:00,
2013-01-07 07:59:00,28.0,24.9,30.03,SW,225,0.0,0.0,88,0.00,,,0.00,WUHU216HW,2013-01-07 14:59:00,
2013-01-07 08:04:00,28.0,24.9,30.03,WSW,248,0.0,0.0,88,0.00,,,0.00,WUHU216HW,2013-01-07 15:04:00,
2013-01-07 08:09:00,28.0,24.6,30.03,WSW,248,0.0,0.0,87,0.00,,,0.00,WUHU216HW,2013-01-07 15:09:00,
2013-01-07 08:14:00,28.0,24.6,30.03,West,270,0.0,0.0,87,0.00,,,0.00,WUHU216HW,2013-01-07 15:14:00,
2013-01-07 08:19:00,28.0,24.6,30.03,West,270,0.0,0.0,88,0.00,,,0.00,WUHU216HW,2013-01-07 15:19:00,
2013-01-07 08:24:00,28.0,24.9,30.04,SW,225,0.0,0.0,88,0.00,,,0.00,WUHU216HW,2013-01-07 15:24:00,
2013-01-07 08:29:00,28.0,24.9,30.04,SW,225,0.0,0.0,88,0.00,,,0.00,WUHU216HW,2013-01-07 15:29:00,
2013-01-07 08:35:00,28.0,24.9,30.03,West,270,0.0,0.0,88,0.00,,,0.00,WUHU216HW,2013-01-07 15:35:00,
2013-01-07 08:40:00,28.0,24.9,30.03,WSW,248,0.0,0.0,88,0.00,,,0.00,WUHU216HW,2013-01-07 15:40:00,
2013-01-07 08:45:00,28.0,24.9,30.04,SW,225,0.0,0.0,88,0.00,,,0.00,WUHU216HW,2013-01-07 15:45:00,
2013-01-07 08:50:00,28.0,24.6,30.04,SSW,203,0.0,0.0,87,0.00,,,0.00,WUHU216HW,2013-01-07 15:50:00,
2013-01-07 08:55:00,28.2,24.8,30.04,SW,225,0.0,0.0,87,0.00,,,0.00,WUHU216HW,2013-01-07 15:55:00,
2013-01-07 09:00:00,28.2,24.8,30.04,SW,225,0.0,0.0,87,0.00,,,0.00,WUHU216HW,2013-01-07 16:00:00,
2013-01-07 09:05:00,28.2,24.8,30.03,SW,225,0.0,0.0,87,0.00,,,0.00,WUHU216HW,2013-01-07 16:05:00,
2013-01-07 09:11:00,28.2,24.8,30.03,WSW,248,0.0,0.0,87,0.00,,,0.00,WUHU216HW,2013-01-07 16:11:00,
2013-01-07 09:15:00,28.2,24.8,30.02,SSW,203,0.0,0.0,87,0.00,,,0.00,WUHU216HW,2013-01-07 16:15:00,
2013-01-07 09:21:00,28.2,24.8,30.02,SW,225,0.0,0.0,87,0.00,,,0.00,WUHU216HW,2013-01-07 16:21:00,
2013-01-07 09:26:00,28.4,25.0,30.02,South,180,0.0,0.0,87,0.00,,,0.00,WUHU216HW,2013-01-07 16:26:00,
2013-01-07 09:31:00,28.5,25.1,30.02,SW,225,0.0,0.0,87,0.00,,,0.00,WUHU216HW,2013-01-07 16:31:00,
2013-01-07 09:36:00,28.5,25.1,30.02,WSW,248,0.0,0.0,87,0.00,,,0.00,WUHU216HW,2013-01-07 16:36:00,
2013-01-07 09:41:00,28.5,25.1,30.02,SSW,203,0.0,0.0,87,0.00,,,0.00,WUHU216HW,2013-01-07 16:41:00,
2013-01-07 09:46:00,28.5,25.1,30.02,SSW,203,0.0,0.0,87,0.00,,,0.00,WUHU216HW,2013-01-07 16:46:00,
2013-01-07 09:51:00,28.7,25.3,30.02,South,180,0.0,0.0,87,0.00,,,0.00,WUHU216HW,2013-01-07 16:51:00,
2013-01-07 09:56:00,28.7,25.3,30.02,South,180,0.0,0.0,87,0.00,,,0.00,WUHU216HW,2013-01-07 16:56:00,
2013-01-07 10:01:00,28.9,25.5,30.01,SSW,203,0.0,0.0,87,0.00,,,0.00,WUHU216HW,2013-01-07 17:01:00,
2013-01-07 10:06:00,28.9,25.5,30.01,South,180,0.0,0.0,87,0.00,,,0.00,WUHU216HW,2013-01-07 17:06:00,
2013-01-07 10:11:00,28.9,25.2,30.01,South,180,0.0,0.0,86,0.00,,,0.00,WUHU216HW,2013-01-07 17:11:00,
2013-01-07 10:16:00,29.1,25.4,30.01,SSW,203,0.0,0.0,86,0.00,,,0.00,WUHU216HW,2013-01-07 17:16:00,
2013-01-07 10:21:00,29.1,25.4,30.01,SW,225,0.0,0.0,86,0.00,,,0.00,WUHU216HW,2013-01-07 17:21:00,
2013-01-07 10:27:00,29.1,25.4,30.00,SSW,203,0.0,0.0,86,0.00,,,0.00,WUHU216HW,2013-01-07 17:27:00,
2013-01-07 10:32:00,29.1,25.4,30.00,SSW,203,0.0,0.0,86,0.00,,,0.00,WUHU216HW,2013-01-07 17:32:00,
2013-01-07 10:37:00,29.1,25.4,30.01,SSW,203,0.0,0.0,86,0.00,,,0.00,WUHU216HW,2013-01-07 17:37:00,
2013-01-07 10:42:00,29.1,25.4,30.00,SSW,203,0.0,0.0,86,0.00,,,0.00,WUHU216HW,2013-01-07 17:42:00,
2013-01-07 10:47:00,29.1,25.4,30.00,SSW,203,0.0,0.0,86,0.00,,,0.00,WUHU216HW,2013-01-07 17:47:00,
2013-01-07 10:52:00,29.1,25.1,30.00,SSW,203,0.0,0.0,85,0.00,,,0.00,WUHU216HW,2013-01-07 17:52:00,
2013-01-07 10:57:00,29.1,25.1,30.00,SSW,203,0.0,0.0,85,0.00,,,0.00,WUHU216HW,2013-01-07 17:57:00,
2013-01-07 11:02:00,29.3,25.3,30.00,SW,225,0.0,0.0,85,0.00,,,0.00,WUHU216HW,2013-01-07 18:02:00,
2013-01-07 11:07:00,29.3,25.3,30.00,South,180,0.0,0.0,85,0.00,,,0.00,WUHU216HW,2013-01-07 18:07:00,
2013-01-07 11:12:00,29.3,25.3,29.99,SW,225,0.0,0.0,85,0.00,,,0.00,WUHU216HW,2013-01-07 18:12:00,
2013-01-07 11:17:00,29.4,25.5,29.99,SSW,203,0.0,0.0,85,0.00,,,0.00,WUHU216HW,2013-01-07 18:17:00,
2013-01-07 11:22:00,29.3,25.3,29.99,SW,225,0.0,0.0,85,0.00,,,0.00,WUHU216HW,2013-01-07 18:22:00,
2013-01-07 11:27:00,29.4,25.5,29.99,SW,225,0.0,0.0,85,0.00,,,0.00,WUHU216HW,2013-01-07 18:27:00,
2013-01-07 11:32:00,29.4,25.5,29.99,SW,225,0.0,0.0,85,0.00,,,0.00,WUHU216HW,2013-01-07 18:32:00,
2013-01-07 11:37:00,29.4,25.5,29.98,SW,225,0.0,0.0,85,0.00,,,0.00,WUHU216HW,2013-01-07 18:37:00,
2013-01-07 11:42:00,29.4,25.5,29.99,SW,225,0.0,0.0,85,0.00,,,0.00,WUHU216HW,2013-01-07 18:42:00,
2013-01-07 11:47:00,29.6,25.7,29.99,SW,225,0.0,0.0,85,0.00,,,0.00,WUHU216HW,2013-01-07 18:47:00,
2013-01-07 11:53:00,29.8,25.8,29.98,WSW,248,0.0,0.0,85,0.00,,,0.00,WUHU216HW,2013-01-07 18:53:00,
2013-01-07 11:58:00,30.0,26.0,29.97,South,180,0.0,0.0,85,0.00,,,0.00,WUHU216HW,2013-01-07 18:58:00,
2013-01-07 12:03:00,30.0,26.0,29.97,WSW,248,0.0,0.0,85,0.00,,,0.00,WUHU216HW,2013-01-07 19:03:00,
2013-01-07 12:08:00,30.0,26.0,29.97,West,270,0.0,0.0,85,0.00,,,0.00,WUHU216HW,2013-01-07 19:08:00,
2013-01-07 12:13:00,30.0,26.0,29.97,SW,225,0.0,0.0,85,0.00,,,0.00,WUHU216HW,2013-01-07 19:13:00,
2013-01-07 12:18:00,30.0,26.0,29.97,SW,225,0.0,0.0,85,0.00,,,0.00,WUHU216HW,2013-01-07 19:18:00,
2013-01-07 12:23:00,30.0,26.0,29.97,WSW,248,0.0,0.0,85,0.00,,,0.00,WUHU216HW,2013-01-07 19:23:00,
2013-01-07 12:29:00,30.0,26.0,29.96,SSW,203,0.0,0.0,85,0.00,,,0.00,WUHU216HW,2013-01-07 19:29:00,
2013-01-07 12:34:00,30.0,26.0,29.96,SSW,203,0.0,0.0,85,0.00,,,0.00,WUHU216HW,2013-01-07 19:34:00,
2013-01-07 12:38:00,30.0,26.0,29.95,SW,225,0.0,0.0,85,0.00,,,0.00,WUHU216HW,2013-01-07 19:38:00,
2013-01-07 12:44:00,30.0,26.0,29.95,SW,225,0.0,0.0,85,0.00,,,0.00,WUHU216HW,2013-01-07 19:44:00,
2013-01-07 12:49:00,29.8,25.8,29.95,SW,225,0.0,0.0,85,0.00,,,0.00,WUHU216HW,2013-01-07 19:49:00,
2013-01-07 12:54:00,29.8,25.8,29.95,SSW,203,0.0,0.0,85,0.00,,,0.00,WUHU216HW,2013-01-07 19:54:00,
2013-01-07 12:59:00,29.8,25.8,29.94,SSW,203,0.0,0.0,85,0.00,,,0.00,WUHU216HW,2013-01-07 19:59:00,
2013-01-07 13:04:00,29.6,25.7,29.94,South,180,0.0,0.0,85,0.00,,,0.00,WUHU216HW,2013-01-07 20:04:00,
2013-01-07 13:09:00,29.6,25.7,29.93,SSW,203,0.0,0.0,85,0.00,,,0.00,WUHU216HW,2013-01-07 20:09:00,
2013-01-07 13:14:00,29.6,25.7,29.93,SSW,203,0.0,0.0,85,0.00,,,0.00,WUHU216HW,2013-01-07 20:14:00,
2013-01-07 13:19:00,29.6,25.7,29.93,SW,225,0.0,0.0,85,0.00,,,0.00,WUHU216HW,2013-01-07 20:19:00,
2013-01-07 13:20:00,29.6,25.7,29.93,SSW,203,0.0,0.0,85,0.00,,,0.00,WUHU216HW,2013-01-07 20:20:00,
2013-01-07 13:25:00,29.6,25.7,29.92,SSW,203,0.0,0.0,85,0.00,,,0.00,WUHU216HW,2013-01-07 20:25:00,
2013-01-07 13:30:00,29.4,25.5,29.92,SSW,203,0.0,0.0,85,0.00,,,0.00,WUHU216HW,2013-01-07 20:30:00,
2013-01-07 13:35:00,29.4,25.5,29.92,SW,225,0.0,0.0,85,0.00,,,0.00,WUHU216HW,2013-01-07 20:35:00,
2013-01-07 13:41:00,29.4,25.5,29.91,SW,225,0.0,0.0,85,0.00,,,0.00,WUHU216HW,2013-01-07 20:41:00,
2013-01-07 13:46:00,29.4,25.5,29.92,SW,225,0.0,0.0,85,0.00,,,0.00,WUHU216HW,2013-01-07 20:46:00,
2013-01-07 13:51:00,29.6,25.5,29.92,WSW,248,0.0,0.0,85,0.00,,,0.00,WUHU216HW,2013-01-07 20:51:00,
2013-01-07 13:56:00,29.4,25.5,29.91,SSW,203,0.0,0.0,85,0.00,,,0.00,WUHU216HW,2013-01-07 20:56:00,
2013-01-07 14:01:00,29.4,25.8,29.91,SW,225,0.0,0.0,86,0.00,,,0.00,WUHU216HW,2013-01-07 21:01:00,
2013-01-07 14:06:00,29.4,25.8,29.91,SW,225,0.0,0.0,86,0.00,,,0.00,WUHU216HW,2013-01-07 21:06:00,
2013-01-07 14:11:00,29.8,26.1,29.91,SW,225,0.0,0.0,86,0.00,,,0.00,WUHU216HW,2013-01-07 21:11:00,
2013-01-07 14:16:00,29.8,26.1,29.91,SSW,203,0.0,0.0,86,0.00,,,0.00,WUHU216HW,2013-01-07 21:16:00,
2013-01-07 14:21:00,30.0,26.3,29.91,SSW,203,0.0,0.0,86,0.00,,,0.00,WUHU216HW,2013-01-07 21:21:00,
2013-01-07 14:26:00,30.2,26.5,29.91,South,180,0.0,0.0,86,0.00,,,0.00,WUHU216HW,2013-01-07 21:26:00,
2013-01-07 14:31:00,30.3,26.5,29.91,South,180,0.0,0.0,86,0.00,,,0.00,WUHU216HW,2013-01-07 21:31:00,
2013-01-07 14:36:00,30.3,26.7,29.91,SW,225,0.0,0.0,86,0.00,,,0.00,WUHU216HW,2013-01-07 21:36:00,
2013-01-07 14:41:00,30.3,26.7,29.91,SW,225,0.0,0.0,86,0.00,,,0.00,WUHU216HW,2013-01-07 21:41:00,
2013-01-07 14:46:00,30.2,26.5,29.91,SW,225,0.0,0.0,86,0.00,,,0.00,WUHU216HW,2013-01-07 21:46:00,
2013-01-07 14:51:00,30.2,26.5,29.91,West,270,0.0,0.0,86,0.00,,,0.00,WUHU216HW,2013-01-07 21:51:00,
2013-01-07 14:56:00,30.2,26.5,29.91,SW,225,0.0,0.0,86,0.00,,,0.00,WUHU216HW,2013-01-07 21:56:00,
2013-01-07 15:01:00,30.2,26.5,29.91,West,270,0.0,0.0,86,0.00,,,0.00,WUHU216HW,2013-01-07 22:01:00,
2013-01-07 15:06:00,30.3,26.7,29.91,West,270,0.0,0.0,86,0.00,,,0.00,WUHU216HW,2013-01-07 22:06:00,
2013-01-07 15:11:00,30.3,26.7,29.91,SSW,203,0.0,0.0,86,0.00,,,0.00,WUHU216HW,2013-01-07 22:11:00,
2013-01-07 15:16:00,30.5,26.8,29.91,West,270,0.0,0.0,86,0.00,,,0.00,WUHU216HW,2013-01-07 22:16:00,
2013-01-07 15:21:00,30.5,26.8,29.91,WSW,248,0.0,0.0,86,0.00,,,0.00,WUHU216HW,2013-01-07 22:21:00,
2013-01-07 15:26:00,30.5,26.8,29.91,West,270,0.0,0.0,86,0.00,,,0.00,WUHU216HW,2013-01-07 22:26:00,
2013-01-07 15:31:00,30.5,26.8,29.91,WSW,248,0.0,0.0,86,0.00,,,0.00,WUHU216HW,2013-01-07 22:31:00,
2013-01-07 15:36:00,30.5,26.8,29.91,SW,225,0.0,0.0,86,0.00,,,0.00,WUHU216HW,2013-01-07 22:36:00,
2013-01-07 15:41:00,30.5,26.8,29.91,West,270,0.0,0.0,86,0.00,,,0.00,WUHU216HW,2013-01-07 22:41:00,
2013-01-07 15:46:00,30.5,26.8,29.91,SW,225,0.0,0.0,86,0.00,,,0.00,WUHU216HW,2013-01-07 22:46:00,
2013-01-07 15:51:00,30.3,26.7,29.91,SW,225,0.0,0.0,86,0.00,,,0.00,WUHU216HW,2013-01-07 22:51:00,
2013-01-07 15:56:00,30.3,26.7,29.91,WSW,248,0.0,0.0,86,0.00,,,0.00,WUHU216HW,2013-01-07 22:56:00,
2013-01-07 16:01:00,30.2,26.5,29.91,WSW,248,0.0,0.0,86,0.00,,,0.00,WUHU216HW,2013-01-07 23:01:00,
2013-01-07 16:06:00,30.2,26.8,29.91,SW,225,0.0,0.0,87,0.00,,,0.00,WUHU216HW,2013-01-07 23:06:00,
2013-01-07 16:12:00,30.2,26.8,29.91,WSW,248,0.0,0.0,87,0.00,,,0.00,WUHU216HW,2013-01-07 23:12:00,
2013-01-07 16:17:00,30.0,26.8,29.91,WSW,248,0.0,0.0,87,0.00,,,0.00,WUHU216HW,2013-01-07 23:17:00,
2013-01-07 16:22:00,30.0,26.6,29.91,WSW,248,0.0,0.0,87,0.00,,,0.00,WUHU216HW,2013-01-07 23:22:00,
2013-01-07 16:27:00,30.0,26.6,29.91,SW,225,0.0,0.0,87,0.00,,,0.00,WUHU216HW,2013-01-07 23:27:00,
2013-01-07 16:32:00,30.0,26.6,29.91,SW,225,0.0,0.0,87,0.00,,,0.00,WUHU216HW,2013-01-07 23:32:00,
2013-01-07 16:37:00,30.0,26.6,29.91,SW,225,0.0,0.0,87,0.00,,,0.00,WUHU216HW,2013-01-07 23:37:00,
2013-01-07 16:42:00,30.0,26.9,29.91,SW,225,0.0,0.0,88,0.00,,,0.00,WUHU216HW,2013-01-07 23:42:00,
2013-01-07 16:47:00,30.0,26.9,29.91,SSW,203,0.0,0.0,88,0.00,,,0.00,WUHU216HW,2013-01-07 23:47:00,
2013-01-07 16:52:00,30.0,26.9,29.90,SSW,203,0.0,0.0,88,0.00,,,0.00,WUHU216HW,2013-01-07 23:52:00,
2013-01-07 16:57:00,30.0,26.9,29.91,West,270,0.0,0.0,88,0.00,,,0.00,WUHU216HW,2013-01-07 23:57:00,
2013-01-07 17:02:00,30.0,26.9,29.91,WSW,248,0.0,0.0,88,0.00,,,0.00,WUHU216HW,2013-01-08 00:02:00,
2013-01-07 17:07:00,30.0,26.9,29.90,SW,225,0.0,0.0,88,0.00,,,0.00,WUHU216HW,2013-01-08 00:07:00,
2013-01-07 17:12:00,30.0,26.9,29.90,WSW,248,0.0,0.0,88,0.00,,,0.00,WUHU216HW,2013-01-08 00:12:00,
2013-01-07 17:17:00,30.0,26.9,29.90,SW,225,0.0,0.0,88,0.00,,,0.00,WUHU216HW,2013-01-08 00:17:00,
2013-01-07 17:22:00,30.0,26.9,29.90,SW,225,0.0,0.0,88,0.00,,,0.00,WUHU216HW,2013-01-08 00:22:00,
2013-01-07 17:27:00,30.0,26.9,29.89,SW,225,0.0,0.0,88,0.00,,,0.00,WUHU216HW,2013-01-08 00:27:00,
2013-01-07 17:32:00,30.2,27.1,29.89,SW,225,0.0,0.0,88,0.00,,,0.00,WUHU216HW,2013-01-08 00:32:00,
2013-01-07 17:37:00,30.2,27.1,29.89,SSW,203,0.0,0.0,88,0.00,,,0.00,WUHU216HW,2013-01-08 00:37:00,
2013-01-07 17:43:00,30.2,27.1,29.89,SW,225,0.0,0.0,88,0.00,,,0.00,WUHU216HW,2013-01-08 00:43:00,
2013-01-07 17:48:00,30.2,27.1,29.89,SSW,203,0.0,0.0,88,0.00,,,0.00,WUHU216HW,2013-01-08 00:48:00,
2013-01-07 17:53:00,30.2,27.1,29.89,SSW,203,0.0,0.0,88,0.00,,,0.00,WUHU216HW,2013-01-08 00:53:00,
2013-01-07 17:58:00,30.3,27.2,29.89,SSW,203,0.0,0.0,88,0.00,,,0.00,WUHU216HW,2013-01-08 00:58:00,
2013-01-07 18:03:00,30.3,27.2,29.88,WSW,248,0.0,0.0,88,0.00,,,0.00,WUHU216HW,2013-01-08 01:03:00,
2013-01-07 18:08:00,30.3,27.2,29.89,WSW,248,0.0,0.0,88,0.00,,,0.00,WUHU216HW,2013-01-08 01:08:00,
2013-01-07 18:13:00,30.5,27.4,29.89,WSW,248,0.0,0.0,88,0.00,,,0.00,WUHU216HW,2013-01-08 01:13:00,
2013-01-07 18:18:00,30.5,27.4,29.89,West,270,0.0,0.0,88,0.00,,,0.00,WUHU216HW,2013-01-08 01:18:00,
2013-01-07 18:23:00,30.5,27.4,29.89,WSW,248,0.0,0.0,88,0.00,,,0.00,WUHU216HW,2013-01-08 01:23:00,
2013-01-07 18:28:00,30.7,27.6,29.89,SW,225,0.0,0.0,88,0.00,,,0.00,WUHU216HW,2013-01-08 01:28:00,
2013-01-07 18:33:00,30.9,27.8,29.89,SSW,203,0.0,0.0,88,0.00,,,0.00,WUHU216HW,2013-01-08 01:33:00,
2013-01-07 18:39:00,31.2,28.1,29.89,SSW,203,0.0,0.0,88,0.00,,,0.00,WUHU216HW,2013-01-08 01:39:00,
2013-01-07 18:44:00,31.6,28.5,29.89,SSW,203,0.0,0.0,88,0.00,,,0.00,WUHU216HW,2013-01-08 01:44:00,
2013-01-07 18:49:00,31.8,28.7,29.89,SW,225,0.0,0.0,88,0.00,,,0.00,WUHU216HW,2013-01-08 01:49:00,
2013-01-07 18:54:00,32.1,29.0,29.89,WSW,248,0.0,0.0,88,0.00,,,0.00,WUHU216HW,2013-01-08 01:54:00,
2013-01-07 18:59:00,32.1,29.0,29.89,WSW,248,0.0,0.0,88,0.00,,,0.00,WUHU216HW,2013-01-08 01:59:00,
2013-01-07 19:04:00,32.3,29.2,29.89,WSW,248,0.0,0.0,88,0.00,,,0.00,WUHU216HW,2013-01-08 02:04:00,
2013-01-07 19:09:00,32.3,29.2,29.89,SW,225,0.0,0.0,88,0.00,,,0.00,WUHU216HW,2013-01-08 02:09:00,
2013-01-07 19:14:00,32.3,29.2,29.89,SSW,203,0.0,0.0,88,0.00,,,0.00,WUHU216HW,2013-01-08 02:14:00,
2013-01-07 19:19:00,32.3,29.2,29.89,SW,225,0.0,0.0,88,0.00,,,0.00,WUHU216HW,2013-01-08 02:19:00,
2013-01-07 19:24:00,32.3,29.2,29.89,SSW,203,0.0,0.0,88,0.00,,,0.00,WUHU216HW,2013-01-08 02:24:00,
2013-01-07 19:29:00,32.3,29.2,29.89,SW,225,0.0,0.0,88,0.00,,,0.00,WUHU216HW,2013-01-08 02:29:00,
2013-01-07 19:34:00,32.3,29.2,29.89,SW,225,0.0,0.0,88,0.00,,,0.00,WUHU216HW,2013-01-08 02:34:00,
2013-01-07 19:40:00,32.3,29.2,29.89,SW,225,0.0,0.0,88,0.00,,,0.00,WUHU216HW,2013-01-08 02:40:00,
2013-01-07 19:45:00,32.3,29.2,29.89,SSW,203,0.0,0.0,88,0.00,,,0.00,WUHU216HW,2013-01-08 02:45:00,
2013-01-07 19:50:00,32.5,29.3,29.89,West,270,0.0,0.0,88,0.00,,,0.00,WUHU216HW,2013-01-08 02:50:00,
2013-01-07 19:55:00,32.7,29.5,29.89,SW,225,0.0,0.0,88,0.00,,,0.00,WUHU216HW,2013-01-08 02:55:00,
2013-01-07 20:00:00,32.7,29.2,29.89,West,270,0.0,0.0,87,0.00,,,0.00,WUHU216HW,2013-01-08 03:00:00,
2013-01-07 20:05:00,32.7,29.2,29.88,SW,225,0.0,0.0,87,0.00,,,0.00,WUHU216HW,2013-01-08 03:05:00,
2013-01-07 20:10:00,32.7,29.2,29.88,SW,225,0.0,2.0,87,0.00,,,0.00,WUHU216HW,2013-01-08 03:10:00,
2013-01-07 20:15:00,32.7,29.2,29.89,WSW,248,2.9,4.2,87,0.00,,,0.00,WUHU216HW,2013-01-08 03:15:00,
2013-01-07 20:20:00,32.7,29.2,29.88,West,270,6.4,6.4,87,0.00,,,0.00,WUHU216HW,2013-01-08 03:20:00,
2013-01-07 20:25:00,32.9,29.4,29.88,South,180,1.3,6.7,87,0.00,,,0.00,WUHU216HW,2013-01-08 03:25:00,
2013-01-07 20:30:00,33.0,29.5,29.89,West,270,4.0,7.6,87,0.00,,,0.00,WUHU216HW,2013-01-08 03:30:00,
2013-01-07 20:35:00,33.2,29.7,29.89,WSW,248,6.7,7.6,87,0.00,,,0.00,WUHU216HW,2013-01-08 03:35:00,
2013-01-07 20:40:00,33.6,30.0,29.88,West,270,3.1,6.7,87,0.00,,,0.00,WUHU216HW,2013-01-08 03:40:00,
2013-01-07 20:45:00,33.6,30.0,29.88,West,270,6.9,8.9,87,0.00,,,0.00,WUHU216HW,2013-01-08 03:45:00,
2013-01-07 20:51:00,33.8,30.2,29.88,WSW,248,8.9,8.9,87,0.00,,,0.00,WUHU216HW,2013-01-08 03:51:00,
2013-01-07 20:56:00,33.8,30.2,29.88,WSW,248,8.5,8.9,87,0.00,,,0.00,WUHU216HW,2013-01-08 03:56:00,
2013-01-07 21:01:00,33.9,30.1,29.89,West,270,4.6,8.5,86,0.00,,,0.00,WUHU216HW,2013-01-08 04:01:00,
2013-01-07 21:06:00,33.9,30.1,29.89,WSW,248,4.6,8.2,86,0.00,,,0.00,WUHU216HW,2013-01-08 04:06:00,
2013-01-07 21:11:00,34.1,30.3,29.88,WSW,248,4.6,7.3,86,0.00,,,0.00,WUHU216HW,2013-01-08 04:11:00,
2013-01-07 21:16:00,34.3,30.4,29.89,West,270,6.9,8.9,86,0.00,,,0.00,WUHU216HW,2013-01-08 04:16:00,
2013-01-07 21:21:00,34.3,30.4,29.89,WSW,248,4.2,10.7,86,0.00,,,0.00,WUHU216HW,2013-01-08 04:21:00,
2013-01-07 21:26:00,34.3,30.4,29.89,West,270,9.1,10.7,86,0.00,,,0.00,WUHU216HW,2013-01-08 04:26:00,
2013-01-07 21:31:00,34.3,30.2,29.89,WSW,248,7.3,9.1,85,0.00,,,0.00,WUHU216HW,2013-01-08 04:31:00,
2013-01-07 21:36:00,34.3,30.2,29.89,WSW,248,6.2,8.9,85,0.00,,,0.00,WUHU216HW,2013-01-08 04:36:00,
2013-01-07 21:41:00,34.3,30.2,29.89,SW,225,2.6,8.9,85,0.00,,,0.00,WUHU216HW,2013-01-08 04:41:00,
2013-01-07 21:46:00,34.3,30.2,29.89,WSW,248,5.5,7.1,85,0.00,,,0.00,WUHU216HW,2013-01-08 04:46:00,
2013-01-07 21:51:00,34.3,30.4,29.88,WSW,248,4.2,7.1,86,0.00,,,0.00,WUHU216HW,2013-01-08 04:51:00,
2013-01-07 21:57:00,34.3,30.4,29.88,WSW,248,7.1,7.1,86,0.00,,,0.00,WUHU216HW,2013-01-08 04:57:00,
2013-01-07 22:00:00,34.3,30.4,29.88,West,270,2.4,7.1,86,0.00,,,0.00,WUHU216HW,2013-01-08 05:00:00,
2013-01-07 22:01:00,34.3,30.4,29.89,West,270,6.7,7.1,86,0.00,,,0.00,WUHU216HW,2013-01-08 05:01:00,
2013-01-07 22:03:00,34.3,30.4,29.89,West,270,2.6,7.1,86,0.00,,,0.00,WUHU216HW,2013-01-08 05:03:00,
2013-01-07 22:08:00,34.3,30.4,29.89,WSW,248,1.5,10.7,86,0.00,,,0.00,WUHU216HW,2013-01-08 05:08:00,
2013-01-07 22:13:00,34.3,30.4,29.89,West,270,0.0,10.2,86,0.00,,,0.00,WUHU216HW,2013-01-08 05:13:00,
2013-01-07 22:18:00,34.3,30.4,29.89,West,270,3.1,6.9,86,0.00,,,0.00,WUHU216HW,2013-01-08 05:18:00,
2013-01-07 22:23:00,34.3,30.4,29.90,SW,225,3.8,9.1,86,0.00,,,0.00,WUHU216HW,2013-01-08 05:23:00,
2013-01-07 22:28:00,34.3,30.4,29.90,WSW,248,4.0,9.1,86,0.00,,,0.00,WUHU216HW,2013-01-08 05:28:00,
2013-01-07 22:33:00,34.3,30.4,29.90,WSW,248,4.2,7.6,86,0.00,,,0.00,WUHU216HW,2013-01-08 05:33:00,
2013-01-07 22:38:00,34.3,30.4,29.90,West,270,4.2,7.6,86,0.00,,,0.00,WUHU216HW,2013-01-08 05:38:00,
2013-01-07 22:43:00,34.1,30.5,29.90,SW,225,2.9,10.5,87,0.00,,,0.00,WUHU216HW,2013-01-08 05:43:00,
2013-01-07 22:49:00,34.1,30.5,29.91,South,180,7.6,10.5,87,0.00,,,0.00,WUHU216HW,2013-01-08 05:49:00,
2013-01-07 22:54:00,33.9,30.4,29.90,SW,225,0.0,7.6,87,0.00,,,0.00,WUHU216HW,2013-01-08 05:54:00,
2013-01-07 22:59:00,33.9,30.4,29.90,WSW,248,4.6,6.2,87,0.00,,,0.00,WUHU216HW,2013-01-08 05:59:00,
2013-01-07 23:04:00,33.8,30.2,29.91,West,270,3.1,7.1,87,0.00,,,0.00,WUHU216HW,2013-01-08 06:04:00,
2013-01-07 23:09:00,33.8,30.2,29.91,SW,225,2.2,7.8,87,0.00,,,0.00,WUHU216HW,2013-01-08 06:09:00,
2013-01-07 23:14:00,33.6,30.0,29.91,SW,225,2.0,7.8,87,0.00,,,0.00,WUHU216HW,2013-01-08 06:14:00,
2013-01-07 23:19:00,33.6,30.0,29.91,West,270,5.5,7.1,87,0.00,,,0.00,WUHU216HW,2013-01-08 06:19:00,
2013-01-07 23:24:00,33.6,30.0,29.91,WSW,248,6.7,9.8,87,0.00,,,0.00,WUHU216HW,2013-01-08 06:24:00,
2013-01-07 23:29:00,33.4,30.2,29.92,SW,225,2.9,7.6,88,0.00,,,0.00,WUHU216HW,2013-01-08 06:29:00,
2013-01-07 23:34:00,33.4,30.2,29.91,West,270,5.5,7.6,88,0.00,,,0.00,WUHU216HW,2013-01-08 06:34:00,
2013-01-07 23:39:00,33.4,30.0,29.91,SW,225,4.4,6.7,88,0.00,,,0.00,WUHU216HW,2013-01-08 06:39:00,
2013-01-07 23:44:00,33.2,30.0,29.91,SSW,203,4.4,6.7,88,0.00,,,0.00,WUHU216HW,2013-01-08 06:44:00,
2013-01-07 23:49:00,33.2,30.0,29.91,WSW,248,3.1,5.5,88,0.00,,,0.00,WUHU216HW,2013-01-08 06:49:00,
2013-01-07 23:54:00,33.2,30.0,29.91,SW,225,2.9,8.0,88,0.00,,,0.00,WUHU216HW,2013-01-08 06:54:00,
2013-01-07 23:59:00,33.0,30.0,29.91,WSW,248,2.9,8.0,88,0.00,,,0.00,WUHU216HW,2013-01-08 06:59:00,